Regional Weather Roundup
Issued by NWS Sioux Falls, SD

Home | Current Version | Previous Version | Text Only | Print | Product List | Glossary On
Versions: 1 2 3 4 5 6 7 8 9 10 11 12 13 14 15 16 17 18 19 20 21 22 23 24 25 26 27 28 29 30 31 32 33 34 35 36 37 38 39 40 41 42 43 44 45 46 47 48 49 50
000
ASUS43 KFSD 310910
RWRFSD

WEATHER ROUNDUP FOR SE SOUTH DAKOTA/SW MINNESOTA/NW IOWA
NATIONAL WEATHER SERVICE SIOUX FALLS SD
300 AM CST SAT JAN 31 2015

NOTE: "FAIR" INDICATES FEW OR NO CLOUDS BELOW 12,000 FEET WITH NO
SIGNIFICANT WEATHER AND OR OBSTRUCTIONS TO VISIBILITY.


SDZ038>040-050-052>070-311000-
SOUTHEAST SOUTH DAKOTA

CITY           SKY/WX    TMP DP  RH WIND       PRES   REMARKS
CHAMBERLAIN    MOCLDY    25  22  91 CALM      30.11R
HURON          PTCLDY    26  24  92 N12       30.12S WCI  16
MADISON        FAIR      23  23 100 NE5       30.09F WCI  17
MITCHELL       PTCLDY    24  23  96 NW5       30.11S WCI  18
SIOUX FALLS    PTCLDY    23  21  92 N3        30.10F
WINNER         FAIR      30  23  75 CALM      30.09S
YANKTON        CLEAR     36  27  69 SW6       30.12R
$$

MNZ071-072-080-081-089-090-097-098-311000-
SOUTHWEST MINNESOTA

CITY           SKY/WX    TMP DP  RH WIND       PRES   REMARKS
FAIRMONT       PTCLDY    27  21  80 W7        30.11F WCI  19
JACKSON        PTCLDY    30  25  80 SW7       30.12S WCI  23
LUVERNE        PTCLDY    27  23  86 CALM      30.12S FOG
MARSHALL       CLEAR     28  21  74 N12       30.14S WCI  18
MONTEVIDEO     CLEAR     25  23  93 N7        30.16R WCI  17
PIPESTONE      PTCLDY    25  23  93 SE3       30.10S
REDWOOD FALLS  CLEAR     25  23  92 NW8       30.12S WCI  16
TRACY          PTCLDY    29  26  88 NW9       30.13S WCI  21
WINDOM         PTCLDY    25  23  93 W5        30.12S WCI  19
WORTHINGTON    PTCLDY    27  23  86 SW8       30.11F WCI  18
$$

IAZ001>003-012>014-020>022-031-032-NEZ013-014-SDZ071-311000-
NORTHWEST IOWA

CITY           SKY/WX    TMP DP  RH WIND       PRES   REMARKS
CHEROKEE       CLEAR     28  27  93 S5        30.14F WCI  23
DENISON        MOCLDY    30  28  93 S6        30.16F WCI  24
ESTHERVILLE    PTCLDY    28  23  81 SW8       30.11F WCI  20
LE MARS        CLEAR     30  27  86 S7        30.14F WCI  23
ORANGE CITY    CLEAR     27  25  93 CALM      30.11F
SHELDON        PTCLDY    28  27  93 S8        30.10F WCI  20
SIOUX CITY     MOCLDY    27  24  89 E6        30.15F WCI  20
SPENCER        CLEAR     27  23  85 SW7       30.13F WCI  19
STORM LAKE     CLEAR     30  27  86 SW10      30.14F WCI  21
$$

ABBREVIATIONS USED IN REMARKS
   TC - TEMPERATURE IN CELSIUS
  WCI - WIND CHILL INDEX
   HX - HEAT INDEX
  VSB - VISIBILITY




USA.gov is the U.S. government's official web portal to all federal, state and local government web resources and services.